This demonstration page uses our WeatherBlox Daily Observations layout. Learn more.

Left ArrowRight Arrow

44.31136, -96.79839

Hourly Observations for January 8, 2023

Temp ( °F °C ) Dew Point ( °F °C ) Humidity (%) Winds ( mph kmh ) Pressure ( in mb ) Visibility ( mi km ) Precip ( " mm )
12:56 am 00:56 Clear with Mist and Fog 2 -16.7 -1 -18.3 87 87 SE 10 17 30.35 1028 5 8 0.00 0.00
1:56 am 01:56 Clear with Mist and Fog 2 -16.7 -1 -18.3 87 87 SE 8 13 30.33 1027 5 8 0.00 0.00
2:56 am 02:56 Clear with Mist and Fog 2 -16.7 -1 -18.3 87 87 SE 9 15 30.33 1027 6 10 0.00 0.00
3:56 am 03:56 Clear with Mist and Fog 2 -16.7 -1 -18.3 87 87 SE 5 7 30.33 1027 5 8 0.00 0.00
4:56 am 04:56 Clear with Mist and Fog 3 -16.1 0 -17.8 87 87 SE 5 7 30.32 1027 5 8 0.00 0.00
5:56 am 05:56 Clear with Mist and Fog 3 -16.1 -1 -18.3 83 83 SE 7 11 30.30 1026 5 8 0.00 0.00
6:56 am 06:56 Clear with Mist and Fog 3 -16.1 0 -17.8 87 87 Calm 30.29 1026 5 8 0.00 0.00
7:56 am 07:56 Clear with Mist and Fog 2 -16.7 -1 -18.3 87 87 ESE 7 11 30.29 1026 4 6 0.00 0.00
8:56 am 08:56 Sunny with Mist and Fog 5 -15 1 -17.2 83 83 SSE 5 7 30.28 1025 4 6 0.00 0.00
9:56 am 09:56 Sunny with Mist and Fog 10 -12.2 6 -14.4 84 84 SE 7 11 30.27 1025 4 6 0.00 0.00
10:23 am 10:23 Partly Cloudy with Isolated Snow Showers 10 -12 9 -13 92 92 SSE 5 7 30.27 1025 3 5 0.01 0.13
10:34 am 10:34 Mostly Cloudy with Light Snow 12 -11 9 -13 85 85 S 3 6 30.28 1025 3 4 0.01 0.13
10:44 am 10:44 Mostly Cloudy with Mist and Fog 12 -11 9 -13 85 85 S 5 7 30.28 1025 1 2 0.01 0.13
10:56 am 10:56 Cloudy with Mist and Fog 13 -10.6 10 -12.2 88 88 S 5 7 30.27 1025 1 2 0.01 0.13
11:45 am 11:45 Mostly Cloudy with Mist and Fog 14 -10 10 -12 85 85 S 6 9 30.25 1024 2 3 0.01 0.13
11:56 am 11:56 Partly Cloudy with Scattered Snow Showers 16 -8.9 12 -11.1 84 84 SSE 6 9 30.25 1024 2 3 0.01 0.13
12:14 pm 12:14 Hazy 18 -8 12 -11 79 79 S 5 7 30.22 1023 3 5 0.01 0.13
12:56 pm 12:56 Hazy 21 -6.1 13 -10.6 70 70 S 5 7 30.22 1023 5 8 0.01 0.13
1:56 pm 13:56 Hazy 24 -4.4 15 -9.4 68 68 SE 5 7 30.19 1023 6 10 0.00 0.00
2:56 pm 14:56 Hazy 24 -4.4 16 -8.9 71 71 S 5 7 30.18 1022 6 10 0.00 0.00
3:56 pm 15:56 Hazy 22 -5.6 14 -10 71 71 SE 6 9 30.19 1022 6 10 0.00 0.00
4:56 pm 16:56 Hazy 18 -7.8 12 -11.1 77 77 SE 7 11 30.19 1022 5 8 0.00 0.00
5:56 pm 17:56 Clear with Mist and Fog 13 -10.6 10 -12.2 88 88 SE 9 15 30.19 1022 5 8 0.00 0.00
6:56 pm 18:56 Clear with Mist and Fog 11 -11.7 8 -13.3 88 88 SE 8 13 30.19 1022 5 8 0.00 0.00
7:56 pm 19:56 Clear with Mist and Fog 10 -12.2 7 -13.9 87 87 SE 8 13 30.19 1023 5 8 0.00 0.00
8:56 pm 20:56 Clear with Mist and Fog 10 -12.2 7 -13.9 87 87 SE 7 11 30.18 1022 4 6 0.00 0.00
9:56 pm 21:56 Clear with Mist and Fog 8 -13.3 6 -14.4 91 91 SE 9 15 30.16 1022 4 6 0.00 0.00
10:56 pm 22:56 Clear with Mist and Fog 9 -12.8 6 -14.4 88 88 ESE 9 15 30.14 1021 4 6 0.00 0.00
11:56 pm 23:56 Clear with Mist and Fog 8 -13.3 6 -14.4 91 91 ESE 9 15 30.12 1020 4 6 0.00 0.00

Powered by AerisWeather